station,date_time,longitude_east,latitude_north,depth,sw_sal,sw_sal_result_value_qualifier,sea_water_temperature,sea_water_temperature_result_value_qualifier,sea_water_pressure,sea_water_pressure_result_value_qualifier,KD_PAR,KD_PAR_result_value_qualifier
CH3-6,2019-01-28T20:00:00Z,-79.08,53.94,1.20,1.88,,-0.11,,, NC,, NC
CH3-6,2019-01-28T20:10:00Z,-79.08,53.94,1.20,1.86,,-0.11,,, NC,, NC
CH3-6,2019-01-28T20:20:00Z,-79.08,53.94,1.20,1.87,,-0.11,,, NC,, NC
CH3-6,2019-01-28T20:30:00Z,-79.08,53.94,1.20,1.89,,-0.12,,, NC,, NC
CH3-6,2019-01-28T20:40:00Z,-79.08,53.94,1.20,1.90,,-0.11,,, NC,, NC
CH3-6,2019-01-28T20:50:00Z,-79.08,53.94,1.20,1.93,,-0.11,,, NC,, NC
CH3-6,2019-01-28T21:00:00Z,-79.08,53.94,1.20,1.97,,-0.11,,, NC,, NC
CH3-6,2019-01-28T21:10:00Z,-79.08,53.94,1.20,2.02,,-0.11,,, NC,, NC
CH3-6,2019-01-28T21:20:00Z,-79.08,53.94,1.20,1.99,,-0.12,,, NC,, NC
CH3-6,2019-01-28T21:30:00Z,-79.08,53.94,1.20,1.99,,-0.12,,, NC,, NC
CH3-6,2019-01-28T21:40:00Z,-79.08,53.94,1.20,1.91,,-0.13,,, NC,, NC
CH3-6,2019-01-28T21:50:00Z,-79.08,53.94,1.20,1.89,,-0.12,,, NC,, NC
CH3-6,2019-01-28T22:00:00Z,-79.08,53.94,1.20,1.72,,-0.12,,, NC,, NC
CH3-6,2019-01-28T22:10:00Z,-79.08,53.94,1.20,1.82,,-0.13,,, NC,, NC
CH3-6,2019-01-28T22:20:00Z,-79.08,53.94,1.20,1.62,,-0.13,,, NC,, NC
CH3-6,2019-01-28T22:30:00Z,-79.08,53.94,1.20,1.69,,-0.11,,, NC,, NC
CH3-6,2019-01-28T22:40:00Z,-79.08,53.94,1.20,1.75,,-0.13,,, NC,, NC
CH3-6,2019-01-28T22:50:00Z,-79.08,53.94,1.20,1.69,,-0.12,,, NC,, NC
CH3-6,2019-01-28T23:00:00Z,-79.08,53.94,1.20,1.76,,-0.12,,, NC,, NC
CH3-6,2019-01-28T23:10:00Z,-79.08,53.94,1.20,1.68,,-0.12,,, NC,, NC
CH3-6,2019-01-28T23:20:00Z,-79.08,53.94,1.20,1.62,,-0.12,,, NC,, NC
CH3-6,2019-01-28T23:30:00Z,-79.08,53.94,1.20,1.56,,-0.12,,, NC,, NC
CH3-6,2019-01-28T23:40:00Z,-79.08,53.94,1.20,1.55,,-0.12,,, NC,, NC
CH3-6,2019-01-28T23:50:00Z,-79.08,53.94,1.20,1.60,,-0.13,,, NC,, NC
CH3-6,2019-01-29T00:00:00Z,-79.08,53.94,1.20,1.60,,-0.12,,, NC,, NC
CH3-6,2019-01-29T00:10:00Z,-79.08,53.94,1.20,1.44,,-0.11,,, NC,, NC
CH3-6,2019-01-29T00:20:00Z,-79.08,53.94,1.20,1.37,,-0.11,,, NC,, NC
CH3-6,2019-01-29T00:30:00Z,-79.08,53.94,1.20,1.37,,-0.11,,, NC,, NC
CH3-6,2019-01-29T00:40:00Z,-79.08,53.94,1.20,1.40,,-0.11,,, NC,, NC
CH3-6,2019-01-29T00:50:00Z,-79.08,53.94,1.20,1.33,,-0.11,,, NC,, NC
CH3-6,2019-01-29T01:00:00Z,-79.08,53.94,1.20,1.36,,-0.11,,, NC,, NC
CH3-6,2019-01-29T01:10:00Z,-79.08,53.94,1.20,1.37,,-0.11,,, NC,, NC
CH3-6,2019-01-29T01:20:00Z,-79.08,53.94,1.20,1.36,,-0.11,,, NC,, NC
CH3-6,2019-01-29T01:30:00Z,-79.08,53.94,1.20,1.35,,-0.11,,, NC,, NC
CH3-6,2019-01-29T01:40:00Z,-79.08,53.94,1.20,1.32,,-0.09,,, NC,, NC
CH3-6,2019-01-29T01:50:00Z,-79.08,53.94,1.20,1.33,,-0.09,,, NC,, NC
CH3-6,2019-01-29T02:00:00Z,-79.08,53.94,1.20,1.36,,-0.11,,, NC,, NC
CH3-6,2019-01-29T02:10:00Z,-79.08,53.94,1.20,1.29,,-0.09,,, NC,, NC
CH3-6,2019-01-29T02:20:00Z,-79.08,53.94,1.20,1.38,,-0.09,,, NC,, NC
CH3-6,2019-01-29T02:30:00Z,-79.08,53.94,1.20,1.36,,-0.09,,, NC,, NC
CH3-6,2019-01-29T02:40:00Z,-79.08,53.94,1.20,1.28,,-0.08,,, NC,, NC
CH3-6,2019-01-29T02:50:00Z,-79.08,53.94,1.20,1.35,,-0.09,,, NC,, NC
CH3-6,2019-01-29T03:00:00Z,-79.08,53.94,1.20,1.61,,-0.09,,, NC,, NC
CH3-6,2019-01-29T03:10:00Z,-79.08,53.94,1.20,1.54,,-0.11,,, NC,, NC
CH3-6,2019-01-29T03:20:00Z,-79.08,53.94,1.20,1.48,,-0.09,,, NC,, NC
CH3-6,2019-01-29T03:30:00Z,-79.08,53.94,1.20,1.38,,-0.09,,, NC,, NC
CH3-6,2019-01-29T03:40:00Z,-79.08,53.94,1.20,1.32,,-0.09,,, NC,, NC
CH3-6,2019-01-29T03:50:00Z,-79.08,53.94,1.20,1.39,,-0.11,,, NC,, NC
CH3-6,2019-01-29T04:00:00Z,-79.08,53.94,1.20,1.44,,-0.09,,, NC,, NC
CH3-6,2019-01-29T04:10:00Z,-79.08,53.94,1.20,1.51,,-0.11,,, NC,, NC
CH3-6,2019-01-29T04:20:00Z,-79.08,53.94,1.20,1.51,,-0.11,,, NC,, NC
CH3-6,2019-01-29T04:30:00Z,-79.08,53.94,1.20,1.54,,-0.11,,, NC,, NC
CH3-6,2019-01-29T04:40:00Z,-79.08,53.94,1.20,1.53,,-0.09,,, NC,, NC
CH3-6,2019-01-29T04:50:00Z,-79.08,53.94,1.20,1.54,,-0.11,,, NC,, NC
CH3-6,2019-01-29T05:00:00Z,-79.08,53.94,1.20,1.64,,-0.11,,, NC,, NC
CH3-6,2019-01-29T05:10:00Z,-79.08,53.94,1.20,1.58,,-0.11,,, NC,, NC
CH3-6,2019-01-29T05:20:00Z,-79.08,53.94,1.20,1.66,,-0.12,,, NC,, NC
CH3-6,2019-01-29T05:30:00Z,-79.08,53.94,1.20,2.08,,-0.12,,, NC,, NC
CH3-6,2019-01-29T05:40:00Z,-79.08,53.94,1.20,2.30,,-0.13,,, NC,, NC
CH3-6,2019-01-29T05:50:00Z,-79.08,53.94,1.20,2.29,,-0.13,,, NC,, NC
CH3-6,2019-01-29T06:00:00Z,-79.08,53.94,1.20,2.27,,-0.14,,, NC,, NC
CH3-6,2019-01-29T06:10:00Z,-79.08,53.94,1.20,2.20,,-0.12,,, NC,, NC
CH3-6,2019-01-29T06:20:00Z,-79.08,53.94,1.20,2.29,,-0.14,,, NC,, NC
CH3-6,2019-01-29T06:30:00Z,-79.08,53.94,1.20,2.41,,-0.15,,, NC,, NC
CH3-6,2019-01-29T06:40:00Z,-79.08,53.94,1.20,2.28,,-0.14,,, NC,, NC
CH3-6,2019-01-29T06:50:00Z,-79.08,53.94,1.20,2.42,,-0.14,,, NC,, NC
CH3-6,2019-01-29T07:00:00Z,-79.08,53.94,1.20,2.39,,-0.13,,, NC,, NC
CH3-6,2019-01-29T07:10:00Z,-79.08,53.94,1.20,2.27,,-0.14,,, NC,, NC
CH3-6,2019-01-29T07:20:00Z,-79.08,53.94,1.20,2.29,,-0.13,,, NC,, NC
CH3-6,2019-01-29T07:30:00Z,-79.08,53.94,1.20,2.28,,-0.13,,, NC,, NC
CH3-6,2019-01-29T07:40:00Z,-79.08,53.94,1.20,2.24,,-0.14,,, NC,, NC
CH3-6,2019-01-29T07:50:00Z,-79.08,53.94,1.20,2.26,,-0.13,,, NC,, NC
CH3-6,2019-01-29T08:00:00Z,-79.08,53.94,1.20,2.19,,-0.13,,, NC,, NC
CH3-6,2019-01-29T08:10:00Z,-79.08,53.94,1.20,2.30,,-0.13,,, NC,, NC
CH3-6,2019-01-29T08:20:00Z,-79.08,53.94,1.20,2.24,,-0.13,,, NC,, NC
CH3-6,2019-01-29T08:30:00Z,-79.08,53.94,1.20,2.28,,-0.13,,, NC,, NC
CH3-6,2019-01-29T08:40:00Z,-79.08,53.94,1.20,2.24,,-0.13,,, NC,, NC
CH3-6,2019-01-29T08:50:00Z,-79.08,53.94,1.20,2.24,,-0.12,,, NC,, NC
CH3-6,2019-01-29T09:00:00Z,-79.08,53.94,1.20,2.23,,-0.13,,, NC,, NC
CH3-6,2019-01-29T09:10:00Z,-79.08,53.94,1.20,2.18,,-0.12,,, NC,, NC
CH3-6,2019-01-29T09:20:00Z,-79.08,53.94,1.20,2.19,,-0.13,,, NC,, NC
CH3-6,2019-01-29T09:30:00Z,-79.08,53.94,1.20,2.22,,-0.13,,, NC,, NC
CH3-6,2019-01-29T09:40:00Z,-79.08,53.94,1.20,2.23,,-0.13,,, NC,, NC
CH3-6,2019-01-29T09:50:00Z,-79.08,53.94,1.20,2.33,,-0.13,,, NC,, NC
CH3-6,2019-01-29T10:00:00Z,-79.08,53.94,1.20,2.18,,-0.14,,, NC,, NC
CH3-6,2019-01-29T10:10:00Z,-79.08,53.94,1.20,1.93,,-0.13,,, NC,, NC
CH3-6,2019-01-29T10:20:00Z,-79.08,53.94,1.20,1.91,,-0.13,,, NC,, NC
CH3-6,2019-01-29T10:30:00Z,-79.08,53.94,1.20,2.00,,-0.14,,, NC,, NC
CH3-6,2019-01-29T10:40:00Z,-79.08,53.94,1.20,1.75,,-0.13,,, NC,, NC
CH3-6,2019-01-29T10:50:00Z,-79.08,53.94,1.20,1.75,,-0.13,,, NC,, NC
CH3-6,2019-01-29T11:00:00Z,-79.08,53.94,1.20,1.90,,-0.13,,, NC,, NC
CH3-6,2019-01-29T11:10:00Z,-79.08,53.94,1.20,1.88,,-0.14,,, NC,, NC
CH3-6,2019-01-29T11:20:00Z,-79.08,53.94,1.20,1.73,,-0.13,,, NC,, NC
CH3-6,2019-01-29T11:30:00Z,-79.08,53.94,1.20,1.63,,-0.12,,, NC,, NC
CH3-6,2019-01-29T11:40:00Z,-79.08,53.94,1.20,1.64,,-0.14,,, NC,, NC
CH3-6,2019-01-29T11:50:00Z,-79.08,53.94,1.20,1.58,,-0.13,,, NC,, NC
CH3-6,2019-01-29T12:00:00Z,-79.08,53.94,1.20,1.54,,-0.13,,, NC,, NC
CH3-6,2019-01-29T12:10:00Z,-79.08,53.94,1.20,1.58,,-0.12,,, NC,, NC
CH3-6,2019-01-29T12:20:00Z,-79.08,53.94,1.20,1.55,,-0.12,,, NC,, NC
CH3-6,2019-01-29T12:30:00Z,-79.08,53.94,1.20,1.51,,-0.12,,, NC,, NC
CH3-6,2019-01-29T12:40:00Z,-79.08,53.94,1.20,1.43,,-0.12,,, NC,, NC
CH3-6,2019-01-29T12:50:00Z,-79.08,53.94,1.20,1.35,,-0.12,,, NC,, NC
CH3-6,2019-01-29T13:00:00Z,-79.08,53.94,1.20,1.36,,-0.11,,, NC,, NC
CH3-6,2019-01-29T13:10:00Z,-79.08,53.94,1.20,1.36,,-0.12,,, NC,, NC
CH3-6,2019-01-29T13:20:00Z,-79.08,53.94,1.20,1.37,,-0.11,,, NC,, NC
CH3-6,2019-01-29T13:30:00Z,-79.08,53.94,1.20,1.37,,-0.11,,, NC,, NC
CH3-6,2019-01-29T13:40:00Z,-79.08,53.94,1.20,1.32,,-0.11,,, NC,, NC
CH3-6,2019-01-29T13:50:00Z,-79.08,53.94,1.20,1.37,,-0.12,,, NC,, NC
CH3-6,2019-01-29T14:00:00Z,-79.08,53.94,1.20,1.38,,-0.09,,, NC,, NC
CH3-6,2019-01-29T14:10:00Z,-79.08,53.94,1.20,1.34,,-0.09,,, NC,, NC
CH3-6,2019-01-29T14:20:00Z,-79.08,53.94,1.20,1.35,,-0.09,,, NC,, NC
CH3-6,2019-01-29T14:30:00Z,-79.08,53.94,1.20,1.35,,-0.11,,, NC,, NC
CH3-6,2019-01-29T14:40:00Z,-79.08,53.94,1.20,1.31,,-0.09,,, NC,, NC
CH3-6,2019-01-29T14:50:00Z,-79.08,53.94,1.20,1.29,,-0.09,,, NC,, NC
CH3-6,2019-01-29T15:00:00Z,-79.08,53.94,1.20,1.43,,-0.09,,, NC,, NC
CH3-6,2019-01-29T15:10:00Z,-79.08,53.94,1.20,1.48,,-0.11,,, NC,, NC
CH3-6,2019-01-29T15:20:00Z,-79.08,53.94,1.20,1.66,,-0.12,,, NC,, NC
CH3-6,2019-01-29T15:30:00Z,-79.08,53.94,1.20,1.69,,-0.12,,, NC,, NC
CH3-6,2019-01-29T15:40:00Z,-79.08,53.94,1.20,1.67,,-0.11,,, NC,, NC
CH3-6,2019-01-29T15:50:00Z,-79.08,53.94,1.20,1.48,,-0.11,,, NC,, NC
CH3-6,2019-01-29T16:00:00Z,-79.08,53.94,1.20,1.42,,-0.11,,, NC,, NC
CH3-6,2019-01-29T16:10:00Z,-79.08,53.94,1.20,1.33,,-0.11,,, NC,, NC
CH3-6,2019-01-29T16:20:00Z,-79.08,53.94,1.20,1.34,,-0.09,,, NC,, NC
CH3-6,2019-01-29T16:30:00Z,-79.08,53.94,1.20,1.35,,-0.11,,, NC,, NC
CH3-6,2019-01-29T16:40:00Z,-79.08,53.94,1.20,1.38,,-0.11,,, NC,, NC
CH3-6,2019-01-29T16:50:00Z,-79.08,53.94,1.20,1.43,,-0.11,,, NC,, NC
CH3-6,2019-01-29T17:00:00Z,-79.08,53.94,1.20,1.47,,-0.12,,, NC,, NC
CH3-6,2019-01-29T17:10:00Z,-79.08,53.94,1.20,1.51,,-0.11,,, NC,, NC
CH3-6,2019-01-29T17:20:00Z,-79.08,53.94,1.20,1.56,,-0.11,,, NC,, NC
CH3-6,2019-01-29T17:30:00Z,-79.08,53.94,1.20,1.60,,-0.11,,, NC,, NC
CH3-6,2019-01-29T17:40:00Z,-79.08,53.94,1.20,1.62,,-0.12,,, NC,, NC
CH3-6,2019-01-29T17:50:00Z,-79.08,53.94,1.20,1.67,,-0.12,,, NC,, NC
CH3-6,2019-01-29T18:00:00Z,-79.08,53.94,1.20,1.60,,-0.11,,, NC,, NC
CH3-6,2019-01-29T18:10:00Z,-79.08,53.94,1.20,1.64,,-0.12,,, NC,, NC
CH3-6,2019-01-29T18:20:00Z,-79.08,53.94,1.20,1.68,,-0.12,,, NC,, NC
CH3-6,2019-01-29T18:30:00Z,-79.08,53.94,1.20,1.70,,-0.12,,, NC,, NC
CH3-6,2019-01-29T18:40:00Z,-79.08,53.94,1.20,1.70,,-0.12,,, NC,, NC
CH3-6,2019-01-29T18:50:00Z,-79.08,53.94,1.20,1.77,,-0.13,,, NC,, NC
CH3-6,2019-01-29T19:00:00Z,-79.08,53.94,1.20,2.09,,-0.13,,, NC,, NC
CH3-6,2019-01-29T19:10:00Z,-79.08,53.94,1.20,2.34,,-0.14,,, NC,, NC
CH3-6,2019-01-29T19:20:00Z,-79.08,53.94,1.20,2.33,,-0.14,,, NC,, NC
CH3-6,2019-01-29T19:30:00Z,-79.08,53.94,1.20,2.39,,-0.14,,, NC,, NC
CH3-6,2019-01-29T19:40:00Z,-79.08,53.94,1.20,2.36,,-0.14,,, NC,, NC
CH3-6,2019-01-29T19:50:00Z,-79.08,53.94,1.20,2.40,,-0.13,,, NC,, NC
CH3-6,2019-01-29T20:00:00Z,-79.08,53.94,1.20,2.41,,-0.13,,, NC,, NC
CH3-6,2019-01-29T20:10:00Z,-79.08,53.94,1.20,2.40,,-0.13,,, NC,, NC
CH3-6,2019-01-29T20:20:00Z,-79.08,53.94,1.20,2.16,,-0.13,,, NC,, NC
CH3-6,2019-01-29T20:30:00Z,-79.08,53.94,1.20,2.07,,-0.12,,, NC,, NC
CH3-6,2019-01-29T20:40:00Z,-79.08,53.94,1.20,2.01,,-0.12,,, NC,, NC
CH3-6,2019-01-29T20:50:00Z,-79.08,53.94,1.20,1.87,,-0.13,,, NC,, NC
CH3-6,2019-01-29T21:00:00Z,-79.08,53.94,1.20,1.97,,-0.13,,, NC,, NC
CH3-6,2019-01-29T21:10:00Z,-79.08,53.94,1.20,2.00,,-0.13,,, NC,, NC
CH3-6,2019-01-29T21:20:00Z,-79.08,53.94,1.20,1.99,,-0.13,,, NC,, NC
CH3-6,2019-01-29T21:30:00Z,-79.08,53.94,1.20,2.06,,-0.12,,, NC,, NC
CH3-6,2019-01-29T21:40:00Z,-79.08,53.94,1.20,1.96,,-0.13,,, NC,, NC
CH3-6,2019-01-29T21:50:00Z,-79.08,53.94,1.20,1.82,,-0.13,,, NC,, NC
CH3-6,2019-01-29T22:00:00Z,-79.08,53.94,1.20,1.84,,-0.12,,, NC,, NC
CH3-6,2019-01-29T22:10:00Z,-79.08,53.94,1.20,1.82,,-0.13,,, NC,, NC
CH3-6,2019-01-29T22:20:00Z,-79.08,53.94,1.20,1.73,,-0.12,,, NC,, NC
CH3-6,2019-01-29T22:30:00Z,-79.08,53.94,1.20,1.85,,-0.13,,, NC,, NC
CH3-6,2019-01-29T22:40:00Z,-79.08,53.94,1.20,1.80,,-0.13,,, NC,, NC
CH3-6,2019-01-29T22:50:00Z,-79.08,53.94,1.20,1.80,,-0.13,,, NC,, NC
CH3-6,2019-01-29T23:00:00Z,-79.08,53.94,1.20,1.46,,-0.12,,, NC,, NC
CH3-6,2019-01-29T23:10:00Z,-79.08,53.94,1.20,1.43,,-0.12,,, NC,, NC
CH3-6,2019-01-29T23:20:00Z,-79.08,53.94,1.20,1.52,,-0.13,,, NC,, NC
CH3-6,2019-01-29T23:30:00Z,-79.08,53.94,1.20,1.52,,-0.13,,, NC,, NC
CH3-6,2019-01-29T23:40:00Z,-79.08,53.94,1.20,1.50,,-0.13,,, NC,, NC
CH3-6,2019-01-29T23:50:00Z,-79.08,53.94,1.20,1.49,,-0.12,,, NC,, NC
CH3-6,2019-01-30T00:00:00Z,-79.08,53.94,1.20,1.45,,-0.12,,, NC,, NC
CH3-6,2019-01-30T00:10:00Z,-79.08,53.94,1.20,1.44,,-0.13,,, NC,, NC
CH3-6,2019-01-30T00:20:00Z,-79.08,53.94,1.20,1.39,,-0.13,,, NC,, NC
CH3-6,2019-01-30T00:30:00Z,-79.08,53.94,1.20,1.42,,-0.12,,, NC,, NC
CH3-6,2019-01-30T00:40:00Z,-79.08,53.94,1.20,1.46,,-0.12,,, NC,, NC
CH3-6,2019-01-30T00:50:00Z,-79.08,53.94,1.20,1.39,,-0.13,,, NC,, NC
CH3-6,2019-01-30T01:00:00Z,-79.08,53.94,1.20,1.36,,-0.12,,, NC,, NC
CH3-6,2019-01-30T01:10:00Z,-79.08,53.94,1.20,1.32,,-0.12,,, NC,, NC
CH3-6,2019-01-30T01:20:00Z,-79.08,53.94,1.20,1.31,,-0.12,,, NC,, NC
CH3-6,2019-01-30T01:30:00Z,-79.08,53.94,1.20,1.28,,-0.11,,, NC,, NC
CH3-6,2019-01-30T01:40:00Z,-79.08,53.94,1.20,1.25,,-0.11,,, NC,, NC
CH3-6,2019-01-30T01:50:00Z,-79.08,53.94,1.20,1.30,,-0.12,,, NC,, NC
CH3-6,2019-01-30T02:00:00Z,-79.08,53.94,1.20,1.25,,-0.11,,, NC,, NC
CH3-6,2019-01-30T02:10:00Z,-79.08,53.94,1.20,1.40,,-0.11,,, NC,, NC
CH3-6,2019-01-30T02:20:00Z,-79.08,53.94,1.20,1.26,,-0.11,,, NC,, NC
CH3-6,2019-01-30T02:30:00Z,-79.08,53.94,1.20,1.25,,-0.11,,, NC,, NC
CH3-6,2019-01-30T02:40:00Z,-79.08,53.94,1.20,1.22,,-0.09,,, NC,, NC
CH3-6,2019-01-30T02:50:00Z,-79.08,53.94,1.20,1.18,,-0.09,,, NC,, NC
CH3-6,2019-01-30T03:00:00Z,-79.08,53.94,1.20,1.19,,-0.08,,, NC,, NC
CH3-6,2019-01-30T03:10:00Z,-79.08,53.94,1.20,1.16,,-0.09,,, NC,, NC
CH3-6,2019-01-30T03:20:00Z,-79.08,53.94,1.20,1.22,,-0.09,,, NC,, NC
CH3-6,2019-01-30T03:30:00Z,-79.08,53.94,1.20,1.29,,-0.11,,, NC,, NC
CH3-6,2019-01-30T03:40:00Z,-79.08,53.94,1.20,1.30,,-0.09,,, NC,, NC
CH3-6,2019-01-30T03:50:00Z,-79.08,53.94,1.20,1.30,,-0.11,,, NC,, NC
CH3-6,2019-01-30T04:00:00Z,-79.08,53.94,1.20,1.31,,-0.09,,, NC,, NC
CH3-6,2019-01-30T04:10:00Z,-79.08,53.94,1.20,1.36,,-0.09,,, NC,, NC
CH3-6,2019-01-30T04:20:00Z,-79.08,53.94,1.20,1.44,,-0.11,,, NC,, NC
CH3-6,2019-01-30T04:30:00Z,-79.08,53.94,1.20,1.36,,-0.11,,, NC,, NC
CH3-6,2019-01-30T04:40:00Z,-79.08,53.94,1.20,1.23,,-0.11,,, NC,, NC
CH3-6,2019-01-30T04:50:00Z,-79.08,53.94,1.20,1.23,,-0.11,,, NC,, NC
CH3-6,2019-01-30T05:00:00Z,-79.08,53.94,1.20,1.23,,-0.09,,, NC,, NC
CH3-6,2019-01-30T05:10:00Z,-79.08,53.94,1.20,1.23,,-0.09,,, NC,, NC
CH3-6,2019-01-30T05:20:00Z,-79.08,53.94,1.20,1.30,,-0.11,,, NC,, NC
CH3-6,2019-01-30T05:30:00Z,-79.08,53.94,1.20,1.38,,-0.11,,, NC,, NC
CH3-6,2019-01-30T05:40:00Z,-79.08,53.94,1.20,1.43,,-0.12,,, NC,, NC
CH3-6,2019-01-30T05:50:00Z,-79.08,53.94,1.20,1.51,,-0.12,,, NC,, NC
CH3-6,2019-01-30T06:00:00Z,-79.08,53.94,1.20,1.52,,-0.12,,, NC,, NC
CH3-6,2019-01-30T06:10:00Z,-79.08,53.94,1.20,1.50,,-0.12,,, NC,, NC
CH3-6,2019-01-30T06:20:00Z,-79.08,53.94,1.20,1.50,,-0.12,,, NC,, NC
CH3-6,2019-01-30T06:30:00Z,-79.08,53.94,1.20,1.55,,-0.12,,, NC,, NC
CH3-6,2019-01-30T06:40:00Z,-79.08,53.94,1.20,1.61,,-0.12,,, NC,, NC
CH3-6,2019-01-30T06:50:00Z,-79.08,53.94,1.20,1.62,,-0.12,,, NC,, NC
CH3-6,2019-01-30T07:00:00Z,-79.08,53.94,1.20,1.60,,-0.12,,, NC,, NC
CH3-6,2019-01-30T07:10:00Z,-79.08,53.94,1.20,1.60,,-0.12,,, NC,, NC
CH3-6,2019-01-30T07:20:00Z,-79.08,53.94,1.20,1.63,,-0.13,,, NC,, NC
CH3-6,2019-01-30T07:30:00Z,-79.08,53.94,1.20,1.66,,-0.12,,, NC,, NC
CH3-6,2019-01-30T07:40:00Z,-79.08,53.94,1.20,1.68,,-0.12,,, NC,, NC
CH3-6,2019-01-30T07:50:00Z,-79.08,53.94,1.20,1.70,,-0.13,,, NC,, NC
CH3-6,2019-01-30T08:00:00Z,-79.08,53.94,1.20,1.78,,-0.13,,, NC,, NC
CH3-6,2019-01-30T08:10:00Z,-79.08,53.94,1.20,2.06,,-0.14,,, NC,, NC
CH3-6,2019-01-30T08:20:00Z,-79.08,53.94,1.20,1.84,,-0.13,,, NC,, NC
CH3-6,2019-01-30T08:30:00Z,-79.08,53.94,1.20,1.88,,-0.13,,, NC,, NC
CH3-6,2019-01-30T08:40:00Z,-79.08,53.94,1.20,1.90,,-0.13,,, NC,, NC
CH3-6,2019-01-30T08:50:00Z,-79.08,53.94,1.20,2.04,,-0.13,,, NC,, NC
CH3-6,2019-01-30T09:00:00Z,-79.08,53.94,1.20,2.22,,-0.13,,, NC,, NC
CH3-6,2019-01-30T09:10:00Z,-79.08,53.94,1.20,2.36,,-0.14,,, NC,, NC
CH3-6,2019-01-30T09:20:00Z,-79.08,53.94,1.20,2.10,,-0.12,,, NC,, NC
CH3-6,2019-01-30T09:30:00Z,-79.08,53.94,1.20,1.98,,-0.12,,, NC,, NC
CH3-6,2019-01-30T09:40:00Z,-79.08,53.94,1.20,2.11,,-0.12,,, NC,, NC
CH3-6,2019-01-30T09:50:00Z,-79.08,53.94,1.20,2.10,,-0.13,,, NC,, NC
CH3-6,2019-01-30T10:00:00Z,-79.08,53.94,1.20,2.10,,-0.13,,, NC,, NC
CH3-6,2019-01-30T10:10:00Z,-79.08,53.94,1.20,1.84,,-0.13,,, NC,, NC
CH3-6,2019-01-30T10:20:00Z,-79.08,53.94,1.20,2.08,,-0.13,,, NC,, NC
CH3-6,2019-01-30T10:30:00Z,-79.08,53.94,1.20,2.10,,-0.13,,, NC,, NC
CH3-6,2019-01-30T10:40:00Z,-79.08,53.94,1.20,2.12,,-0.13,,, NC,, NC
CH3-6,2019-01-30T10:50:00Z,-79.08,53.94,1.20,2.14,,-0.13,,, NC,, NC
CH3-6,2019-01-30T11:00:00Z,-79.08,53.94,1.20,1.80,,-0.12,,, NC,, NC
CH3-6,2019-01-30T11:10:00Z,-79.08,53.94,1.20,1.91,,-0.12,,, NC,, NC
CH3-6,2019-01-30T11:20:00Z,-79.08,53.94,1.20,1.86,,-0.13,,, NC,, NC
CH3-6,2019-01-30T11:30:00Z,-79.08,53.94,1.20,1.83,,-0.12,,, NC,, NC
CH3-6,2019-01-30T11:40:00Z,-79.08,53.94,1.20,2.12,,-0.13,,, NC,, NC
CH3-6,2019-01-30T11:50:00Z,-79.08,53.94,1.20,1.78,,-0.13,,, NC,, NC
CH3-6,2019-01-30T12:00:00Z,-79.08,53.94,1.20,1.55,,-0.12,,, NC,, NC
CH3-6,2019-01-30T12:10:00Z,-79.08,53.94,1.20,1.56,,-0.12,,, NC,, NC
CH3-6,2019-01-30T12:20:00Z,-79.08,53.94,1.20,1.53,,-0.11,,, NC,, NC
CH3-6,2019-01-30T12:30:00Z,-79.08,53.94,1.20,1.47,,-0.12,,, NC,, NC
CH3-6,2019-01-30T12:40:00Z,-79.08,53.94,1.20,1.47,,-0.12,,, NC,, NC
CH3-6,2019-01-30T12:50:00Z,-79.08,53.94,1.20,1.46,,-0.12,,, NC,, NC
CH3-6,2019-01-30T13:00:00Z,-79.08,53.94,1.20,1.38,,-0.12,,, NC,, NC
CH3-6,2019-01-30T13:10:00Z,-79.08,53.94,1.20,1.32,,-0.11,,, NC,, NC
CH3-6,2019-01-30T13:20:00Z,-79.08,53.94,1.20,1.32,,-0.11,,, NC,, NC
CH3-6,2019-01-30T13:30:00Z,-79.08,53.94,1.20,1.32,,-0.11,,, NC,, NC
CH3-6,2019-01-30T13:40:00Z,-79.08,53.94,1.20,1.33,,-0.12,,, NC,, NC
CH3-6,2019-01-30T13:50:00Z,-79.08,53.94,1.20,1.32,,-0.12,,, NC,, NC
CH3-6,2019-01-30T14:00:00Z,-79.08,53.94,1.20,1.33,,-0.09,,, NC,, NC
CH3-6,2019-01-30T14:10:00Z,-79.08,53.94,1.20,1.22,,-0.09,,, NC,, NC
CH3-6,2019-01-30T14:20:00Z,-79.08,53.94,1.20,1.19,,-0.11,,, NC,, NC
CH3-6,2019-01-30T14:30:00Z,-79.08,53.94,1.20,1.18,,-0.09,,, NC,, NC
CH3-6,2019-01-30T14:40:00Z,-79.08,53.94,1.20,1.14,,-0.11,,, NC,, NC
CH3-6,2019-01-30T14:50:00Z,-79.08,53.94,1.20,1.12,,-0.09,,, NC,, NC
CH3-6,2019-01-30T15:00:00Z,-79.08,53.94,1.20,1.10,,-0.09,,, NC,, NC
CH3-6,2019-01-30T15:10:00Z,-79.08,53.94,1.20,1.13,,-0.09,,, NC,, NC
CH3-6,2019-01-30T15:20:00Z,-79.08,53.94,1.20,1.11,,-0.09,,, NC,, NC
CH3-6,2019-01-30T15:30:00Z,-79.08,53.94,1.20,1.27,,-0.11,,, NC,, NC
CH3-6,2019-01-30T15:40:00Z,-79.08,53.94,1.20,1.21,,-0.09,,, NC,, NC
CH3-6,2019-01-30T15:50:00Z,-79.08,53.94,1.20,1.31,,-0.11,,, NC,, NC
CH3-6,2019-01-30T16:00:00Z,-79.08,53.94,1.20,1.34,,-0.11,,, NC,, NC
CH3-6,2019-01-30T16:10:00Z,-79.08,53.94,1.20,1.27,,-0.11,,, NC,, NC
CH3-6,2019-01-30T16:20:00Z,-79.08,53.94,1.20,1.22,,-0.09,,, NC,, NC
CH3-6,2019-01-30T16:30:00Z,-79.08,53.94,1.20,1.25,,-0.09,,, NC,, NC
CH3-6,2019-01-30T16:40:00Z,-79.08,53.94,1.20,1.22,,-0.09,,, NC,, NC
CH3-6,2019-01-30T16:50:00Z,-79.08,53.94,1.20,1.27,,-0.09,,, NC,, NC
CH3-6,2019-01-30T17:00:00Z,-79.08,53.94,1.20,1.36,,-0.11,,, NC,, NC
CH3-6,2019-01-30T17:10:00Z,-79.08,53.94,1.20,1.35,,-0.11,,, NC,, NC
CH3-6,2019-01-30T17:20:00Z,-79.08,53.94,1.20,1.18,,-0.09,,, NC,, NC
CH3-6,2019-01-30T17:30:00Z,-79.08,53.94,1.20,1.15,,-0.09,,, NC,, NC
CH3-6,2019-01-30T17:40:00Z,-79.08,53.94,1.20,1.22,,-0.11,,, NC,, NC
CH3-6,2019-01-30T17:50:00Z,-79.08,53.94,1.20,1.22,,-0.09,,, NC,, NC
CH3-6,2019-01-30T18:00:00Z,-79.08,53.94,1.20,1.38,,-0.11,,, NC,, NC
CH3-6,2019-01-30T18:10:00Z,-79.08,53.94,1.20,1.37,,-0.12,,, NC,, NC
CH3-6,2019-01-30T18:20:00Z,-79.08,53.94,1.20,1.48,,-0.12,,, NC,, NC
CH3-6,2019-01-30T18:30:00Z,-79.08,53.94,1.20,1.52,,-0.12,,, NC,, NC
CH3-6,2019-01-30T18:40:00Z,-79.08,53.94,1.20,1.50,,-0.11,,, NC,, NC
CH3-6,2019-01-30T18:50:00Z,-79.08,53.94,1.20,1.92,,-0.12,,, NC,, NC
CH3-6,2019-01-30T19:00:00Z,-79.08,53.94,1.20,2.00,,-0.13,,, NC,, NC
CH3-6,2019-01-30T19:10:00Z,-79.08,53.94,1.20,1.61,,-0.12,,, NC,, NC
CH3-6,2019-01-30T19:20:00Z,-79.08,53.94,1.20,1.64,,-0.13,,, NC,, NC
CH3-6,2019-01-30T19:30:00Z,-79.08,53.94,1.20,1.62,,-0.12,,, NC,, NC
CH3-6,2019-01-30T19:40:00Z,-79.08,53.94,1.20,1.63,,-0.12,,, NC,, NC
CH3-6,2019-01-30T19:50:00Z,-79.08,53.94,1.20,1.62,,-0.11,,, NC,, NC
CH3-6,2019-01-30T20:00:00Z,-79.08,53.94,1.20,1.62,,-0.12,,, NC,, NC
CH3-6,2019-01-30T20:10:00Z,-79.08,53.94,1.20,1.67,,-0.12,,, NC,, NC
CH3-6,2019-01-30T20:20:00Z,-79.08,53.94,1.20,1.97,,-0.13,,, NC,, NC
CH3-6,2019-01-30T20:30:00Z,-79.08,53.94,1.20,2.17,,-0.13,,, NC,, NC
CH3-6,2019-01-30T20:40:00Z,-79.08,53.94,1.20,2.20,,-0.12,,, NC,, NC
CH3-6,2019-01-30T20:50:00Z,-79.08,53.94,1.20,2.11,,-0.13,,, NC,, NC
CH3-6,2019-01-30T21:00:00Z,-79.08,53.94,1.20,1.80,,-0.12,,, NC,, NC
CH3-6,2019-01-30T21:10:00Z,-79.08,53.94,1.20,2.10,,-0.13,,, NC,, NC
CH3-6,2019-01-30T21:20:00Z,-79.08,53.94,1.20,2.05,,-0.13,,, NC,, NC
CH3-6,2019-01-30T21:30:00Z,-79.08,53.94,1.20,2.17,,-0.13,,, NC,, NC
CH3-6,2019-01-30T21:40:00Z,-79.08,53.94,1.20,2.18,,-0.13,,, NC,, NC
CH3-6,2019-01-30T21:50:00Z,-79.08,53.94,1.20,2.06,,-0.13,,, NC,, NC
CH3-6,2019-01-30T22:00:00Z,-79.08,53.94,1.20,2.03,,-0.13,,, NC,, NC
CH3-6,2019-01-30T22:10:00Z,-79.08,53.94,1.20,1.69,,-0.12,,, NC,, NC
CH3-6,2019-01-30T22:20:00Z,-79.08,53.94,1.20,1.76,,-0.12,,, NC,, NC
CH3-6,2019-01-30T22:30:00Z,-79.08,53.94,1.20,2.00,,-0.12,,, NC,, NC
CH3-6,2019-01-30T22:40:00Z,-79.08,53.94,1.20,1.92,,-0.12,,, NC,, NC
CH3-6,2019-01-30T22:50:00Z,-79.08,53.94,1.20,2.01,,-0.12,,, NC,, NC
CH3-6,2019-01-30T23:00:00Z,-79.08,53.94,1.20,2.01,,-0.13,,, NC,, NC
CH3-6,2019-01-30T23:10:00Z,-79.08,53.94,1.20,1.97,,-0.13,,, NC,, NC
CH3-6,2019-01-30T23:20:00Z,-79.08,53.94,1.20,1.68,,-0.13,,, NC,, NC
CH3-6,2019-01-30T23:30:00Z,-79.08,53.94,1.20,1.69,,-0.13,,, NC,, NC
CH3-6,2019-01-30T23:40:00Z,-79.08,53.94,1.20,1.66,,-0.12,,, NC,, NC
CH3-6,2019-01-30T23:50:00Z,-79.08,53.94,1.20,1.65,,-0.13,,, NC,, NC
CH3-6,2019-01-31T00:00:00Z,-79.08,53.94,1.20,1.55,,-0.13,,, NC,, NC
CH3-6,2019-01-31T00:10:00Z,-79.08,53.94,1.20,1.65,,-0.13,,, NC,, NC
CH3-6,2019-01-31T00:20:00Z,-79.08,53.94,1.20,1.65,,-0.13,,, NC,, NC
CH3-6,2019-01-31T00:30:00Z,-79.08,53.94,1.20,1.26,,-0.11,,, NC,, NC
CH3-6,2019-01-31T00:40:00Z,-79.08,53.94,1.20,1.23,,-0.12,,, NC,, NC
CH3-6,2019-01-31T00:50:00Z,-79.08,53.94,1.20,1.28,,-0.12,,, NC,, NC
CH3-6,2019-01-31T01:00:00Z,-79.08,53.94,1.20,1.22,,-0.11,,, NC,, NC
CH3-6,2019-01-31T01:10:00Z,-79.08,53.94,1.20,1.18,,-0.11,,, NC,, NC
CH3-6,2019-01-31T01:20:00Z,-79.08,53.94,1.20,1.23,,-0.11,,, NC,, NC
CH3-6,2019-01-31T01:30:00Z,-79.08,53.94,1.20,1.22,,-0.12,,, NC,, NC
CH3-6,2019-01-31T01:40:00Z,-79.08,53.94,1.20,1.16,,-0.11,,, NC,, NC
CH3-6,2019-01-31T01:50:00Z,-79.08,53.94,1.20,1.14,,-0.12,,, NC,, NC
CH3-6,2019-01-31T02:00:00Z,-79.08,53.94,1.20,1.07,,-0.11,,, NC,, NC
CH3-6,2019-01-31T02:10:00Z,-79.08,53.94,1.20,1.10,,-0.11,,, NC,, NC
CH3-6,2019-01-31T02:20:00Z,-79.08,53.94,1.20,1.09,,-0.11,,, NC,, NC
CH3-6,2019-01-31T02:30:00Z,-79.08,53.94,1.20,1.09,,-0.09,,, NC,, NC
CH3-6,2019-01-31T02:40:00Z,-79.08,53.94,1.20,1.06,,-0.09,,, NC,, NC
CH3-6,2019-01-31T02:50:00Z,-79.08,53.94,1.20,1.15,,-0.11,,, NC,, NC
CH3-6,2019-01-31T03:00:00Z,-79.08,53.94,1.20,1.03,,-0.11,,, NC,, NC
CH3-6,2019-01-31T03:10:00Z,-79.08,53.94,1.20,1.03,,-0.09,,, NC,, NC
CH3-6,2019-01-31T03:20:00Z,-79.08,53.94,1.20,1.02,,-0.09,,, NC,, NC
CH3-6,2019-01-31T03:30:00Z,-79.08,53.94,1.20,1.04,,-0.09,,, NC,, NC
CH3-6,2019-01-31T03:40:00Z,-79.08,53.94,1.20,1.00,,-0.09,,, NC,, NC
CH3-6,2019-01-31T03:50:00Z,-79.08,53.94,1.20,0.99,,-0.08,,, NC,, NC
CH3-6,2019-01-31T04:00:00Z,-79.08,53.94,1.20,0.99,,-0.09,,, NC,, NC
CH3-6,2019-01-31T04:10:00Z,-79.08,53.94,1.20,1.02,,-0.09,,, NC,, NC
CH3-6,2019-01-31T04:20:00Z,-79.08,53.94,1.20,1.12,,-0.09,,, NC,, NC
CH3-6,2019-01-31T04:30:00Z,-79.08,53.94,1.20,1.20,,-0.11,,, NC,, NC
CH3-6,2019-01-31T04:40:00Z,-79.08,53.94,1.20,1.15,,-0.09,,, NC,, NC
CH3-6,2019-01-31T04:50:00Z,-79.08,53.94,1.20,1.06,,-0.09,,, NC,, NC
CH3-6,2019-01-31T05:00:00Z,-79.08,53.94,1.20,1.13,,-0.09,,, NC,, NC
CH3-6,2019-01-31T05:10:00Z,-79.08,53.94,1.20,1.12,,-0.09,,, NC,, NC
CH3-6,2019-01-31T05:20:00Z,-79.08,53.94,1.20,1.10,,-0.08,,, NC,, NC
CH3-6,2019-01-31T05:30:00Z,-79.08,53.94,1.20,1.14,,-0.09,,, NC,, NC
CH3-6,2019-01-31T05:40:00Z,-79.08,53.94,1.20,1.18,,-0.09,,, NC,, NC
CH3-6,2019-01-31T05:50:00Z,-79.08,53.94,1.20,1.18,,-0.09,,, NC,, NC
CH3-6,2019-01-31T06:00:00Z,-79.08,53.94,1.20,1.16,,-0.11,,, NC,, NC